User: anonymous   Login
Location: Bothwell
(42.3833°S, 147.0000°E)
Time: 18:07:46
(UTC+11:00)
Language:

UNISAT 6 - Orbit

View from above orbital plane
View from above orbital plane
View from above satellite
View from above satellite

Ground track
Ground track

The orbit data is extracted from the following two-line orbital elements,

1 40012U 14033C   23275.83639746  .00004730  00000-0  65346-3 0  9994
2 40012  97.6817  84.6874 0056120  67.0988 293.6134 14.77465121499666
Epoch (UTC): 02 October 2023 20:04:24
Eccentricity: 0.0056120
inclination: 97.6817°
perigee height: 598 km
apogee height: 677 km
right ascension of ascending node: 84.6874°
argument of perigee: 67.0988°
revolutions per day: 14.77465121
mean anomaly at epoch: 293.6134°
orbit number at epoch: 49966

The dashed part of the orbit path shows where the satellite is in the earth's shadow,  

DLR